Date String (YYYY-MM-DD hh:mm:ss) UTC,Instrument flags,Ambient pressure (hPa),Sample flow (lpm),Bypass flow (lpm),Sample temperature (°C),Ambient temperature (°C),ASC tube jacket temperature (°C),LED temperature (°C),Box temperature (°C),Sample RH (%),Span deviation,Mass concentration (μg/m³),Mass concentration (μg/m³),Mass concentration (μg/m³)
DateTimeUTC,F1_M11,P_M11,Q1_M11,Q2_M11,T1_M11,T2_M11,T3_M11,T4_M11,T5_M11,U1_M11,ZSPAN_M11,X0_M11,X2_M11,X1_M11
2023-01-31 15:00:00,,0825.2,5.02,0.00,22.3,20.6,00.0,31.3,23.9,05.7,-000.8,0010.23,0006.79,0006.37
2023-01-31 15:01:00,,0825.2,5.00,0.00,22.4,21.6,00.0,31.3,24.1,05.7,-001.2,0010.08,0006.78,0006.37
2023-01-31 15:02:00,,0825.2,5.01,0.00,22.5,22.8,00.0,31.3,24.4,05.7,-001.1,0010.09,0006.78,0006.39
2023-01-31 15:03:00,,0825.2,4.98,0.00,22.6,22.8,00.0,31.3,24.5,05.7,-000.8,0010.12,0006.80,0006.40
2023-01-31 15:04:00,,0825.2,5.01,0.00,22.6,22.1,00.0,31.3,24.3,05.7,-000.8,0010.13,0006.85,0006.43
2023-01-31 15:05:00,,0825.1,5.00,0.00,22.5,21.6,00.0,31.3,24.2,05.8,-001.1,0010.20,0006.89,0006.45
2023-01-31 15:06:00,,0825.1,4.99,0.00,22.5,21.1,00.0,31.3,24.1,05.8,-000.6,0010.13,0006.85,0006.44
2023-01-31 15:07:00,,0825.0,5.00,0.00,22.4,20.8,00.0,31.3,24.0,05.8,-000.1,0010.08,0006.82,0006.42
2023-01-31 15:08:00,,0824.9,5.02,0.00,22.3,20.5,00.0,31.3,23.9,05.9,0000.1,0010.18,0006.85,0006.42
2023-01-31 15:09:00,,0824.9,4.99,0.00,22.3,20.8,00.0,31.3,23.9,05.9,0000.4,0010.25,0006.88,0006.45
2023-01-31 15:10:00,,0825.0,5.02,0.00,22.4,22.1,00.0,31.3,24.2,05.9,0000.3,0010.31,0006.91,0006.47
2023-01-31 15:11:00,,0825.1,5.00,0.00,22.5,23.3,00.0,31.3,24.5,05.8,0000.6,0010.25,0006.90,0006.49
2023-01-31 15:12:00,,0825.2,4.99,0.00,22.6,23.2,00.0,31.3,24.6,05.8,0001.1,0010.25,0006.90,0006.50
2023-01-31 15:13:00,,0825.3,4.98,0.00,22.6,22.4,00.0,31.3,24.4,05.8,0000.8,0010.38,0006.94,0006.50
2023-01-31 15:14:00,,0825.3,4.99,0.00,22.5,21.8,00.0,31.4,24.2,05.7,0000.7,0010.35,0006.94,0006.50
2023-01-31 15:15:00,,0825.2,5.04,0.00,22.5,21.3,00.0,31.4,24.1,05.8,0001.3,0010.33,0006.92,0006.50
2023-01-31 15:16:00,,0825.2,5.02,0.00,22.4,20.9,00.0,31.4,24.0,05.8,0001.2,0010.29,0006.92,0006.52
2023-01-31 15:17:00,,0825.2,4.99,0.00,22.3,20.5,00.0,31.3,23.9,05.8,0001.4,0010.33,0006.98,0006.56
2023-01-31 15:18:00,,0825.2,4.99,0.00,22.3,20.6,00.0,31.3,23.8,05.9,0001.6,0010.42,0007.04,0006.62
2023-01-31 15:19:00,,0825.1,5.01,0.00,22.4,22.1,00.0,31.3,24.1,05.9,0001.3,0010.44,0007.08,0006.65
2023-01-31 15:20:00,,0825.2,5.01,0.00,22.5,23.3,00.0,31.3,24.5,05.9,0000.8,0010.43,0007.08,0006.66
2023-01-31 15:21:00,,0825.3,4.99,0.00,22.6,23.4,00.0,31.3,24.6,05.9,0000.7,0010.42,0007.10,0006.68
2023-01-31 15:22:00,,0825.3,5.01,0.00,22.6,22.7,00.0,31.4,24.5,05.9,-000.0,0010.46,0007.11,0006.67
2023-01-31 15:23:00,,0825.3,4.98,0.00,22.6,22.0,00.0,31.4,24.3,06.0,-000.3,0010.57,0007.14,0006.67
2023-01-31 15:24:00,,0825.3,5.00,0.00,22.6,21.5,00.0,31.4,24.2,06.0,-000.3,0010.58,0007.16,0006.68
2023-01-31 15:25:00,,0825.3,5.02,0.00,22.5,21.1,00.0,31.4,24.1,06.1,-000.1,0010.61,0007.18,0006.72
2023-01-31 15:26:00,,0825.3,4.98,0.00,22.4,20.8,00.0,31.4,24.0,06.1,-000.8,0010.64,0007.22,0006.74
2023-01-31 15:27:00,,0825.4,5.00,0.00,22.4,20.5,00.0,31.4,23.9,06.2,-000.5,0010.71,0007.27,0006.77
2023-01-31 15:28:00,,0825.4,4.99,0.00,22.4,21.3,00.0,31.3,24.0,06.2,-000.8,0010.86,0007.35,0006.81
2023-01-31 15:29:00,,0825.5,5.02,0.00,22.5,22.6,00.0,31.3,24.4,06.2,-001.2,0010.96,0007.39,0006.83
2023-01-31 15:30:00,,0825.5,4.97,0.00,22.6,23.0,00.0,31.3,24.5,06.2,-001.6,0010.97,0007.38,0006.83
2023-01-31 15:31:00,,0825.4,5.00,0.00,22.6,22.4,00.0,31.4,24.4,06.2,-001.9,0010.92,0007.35,0006.81
2023-01-31 15:32:00,,0825.4,4.99,0.00,22.6,21.9,00.0,31.4,24.3,06.2,-001.9,0010.85,0007.30,0006.77
2023-01-31 15:33:00,,0825.4,5.00,0.00,22.5,21.4,00.0,31.4,24.2,06.3,-001.4,0010.73,0007.23,0006.74
2023-01-31 15:34:00,,0825.5,5.01,0.00,22.5,21.0,00.0,31.4,24.1,06.3,-001.0,0010.64,0007.18,0006.70
2023-01-31 15:35:00,,0825.5,5.00,0.00,22.4,20.8,00.0,31.4,24.0,06.4,-001.5,0010.51,0007.10,0006.64
2023-01-31 15:36:00,,0825.5,4.98,0.00,22.4,20.6,00.0,31.4,24.0,06.4,-001.8,0010.34,0007.01,0006.56
2023-01-31 15:37:00,,0825.6,4.98,0.00,22.4,20.5,00.0,31.3,23.9,06.4,-001.5,0010.27,0006.93,0006.50
2023-01-31 15:38:00,,0825.6,5.01,0.00,22.3,21.1,00.0,31.3,24.0,06.5,-001.4,0010.28,0006.88,0006.43
2023-01-31 15:39:00,,0825.5,4.99,0.00,22.5,22.6,00.0,31.3,24.3,06.5,-001.9,0010.23,0006.74,0006.34
2023-01-31 15:40:00,,0825.4,4.98,0.00,22.6,23.2,00.0,31.3,24.6,06.4,-002.1,0010.09,0006.63,0006.24
2023-01-31 15:41:00,,0825.3,5.00,0.00,22.6,22.6,00.0,31.4,24.5,06.4,-001.8,0009.92,0006.52,0006.15
2023-01-31 15:42:00,,0825.3,4.99,0.00,22.6,21.9,00.0,31.4,24.3,06.5,-001.6,0010.11,0006.45,0006.09
2023-01-31 15:43:00,,0825.3,5.01,0.00,22.5,21.4,00.0,31.4,24.2,06.5,-001.7,0010.49,0006.43,0006.06
2023-01-31 15:44:00,,0825.3,4.98,0.00,22.4,21.1,00.0,31.4,24.0,06.5,-001.8,0010.58,0006.43,0006.02
2023-01-31 15:45:00,,0825.3,4.99,0.00,22.4,20.7,00.0,31.4,23.9,06.5,-001.9,0010.61,0006.42,0005.99
2023-01-31 15:46:00,,0825.3,5.00,0.00,22.3,20.5,00.0,31.3,23.8,06.5,-001.7,0010.59,0006.40,0005.97
2023-01-31 15:47:00,,0825.4,5.02,0.00,22.3,21.0,00.0,31.3,23.9,06.5,-001.1,0010.53,0006.38,0005.95
2023-01-31 15:48:00,,0825.4,5.01,0.00,22.4,22.5,00.0,31.3,24.2,06.5,-001.1,0010.47,0006.35,0005.91
2023-01-31 15:49:00,,0825.5,5.00,0.00,22.6,23.3,00.0,31.3,24.5,06.4,-001.1,0010.30,0006.25,0005.86
2023-01-31 15:50:00,,0825.4,5.00,0.00,22.6,22.8,00.0,31.4,24.5,06.4,-000.6,0010.04,0006.19,0005.80
2023-01-31 15:51:00,,0825.3,5.01,0.00,22.6,22.2,00.0,31.4,24.4,06.4,0000.1,0010.00,0006.16,0005.78
2023-01-31 15:52:00,,0825.4,5.00,0.00,22.6,21.8,00.0,31.4,24.3,06.4,-000.2,0010.03,0006.14,0005.77
2023-01-31 15:53:00,,0825.5,4.99,0.00,22.5,21.4,00.0,31.4,24.2,06.5,-000.2,0009.78,0006.12,0005.76
2023-01-31 15:54:00,,0825.5,5.01,0.00,22.5,21.2,00.0,31.4,24.1,06.5,0000.1,0009.30,0006.10,0005.75
2023-01-31 15:55:00,,0825.5,5.01,0.00,22.5,21.0,00.0,31.4,24.1,06.5,0000.3,0009.27,0006.11,0005.77
2023-01-31 15:56:00,,0825.5,4.97,0.00,22.4,20.8,00.0,31.4,24.0,06.5,0000.6,0009.77,0006.12,0005.79
2023-01-31 15:57:00,,0825.5,5.02,0.00,22.4,20.8,00.0,31.4,24.0,06.5,0000.5,0010.52,0006.13,0005.80
2023-01-31 15:58:00,,0825.5,4.98,0.00,22.4,21.7,00.0,31.3,24.2,06.5,0000.6,0010.70,0006.17,0005.82
2023-01-31 15:59:00,,0825.4,5.01,0.00,22.6,23.0,00.0,31.3,24.5,06.5,0000.8,0010.74,0006.19,0005.84
